TIME,DELAY(SENSOR),PRES,OXYGEN,RAWTEMP,T(OPTODE),TCPHASE,FLUOR,BETA(BETA700),BETA(BETA412),BETA(BETA440),CDOM,C(CSC),ED(ED412.40),ED(ED444.00),ED(ED489.70),ED(ED554.30),LU(LU411.80),LU(LU443.40),LU(LU489.60),LU(LU554.10),COMP,TILTX,TILTY,CHECK
1380599945,5808,842.0300292968750000,45.1406402587890600,658.5347290039062000,4.6762008666992190,54.2171096801757800,53,101,88,79,78,15268,2147757092,2147422948,2148013961,2147873197,2147640576,2147054107,2148259593,2147197833,1537,4,13,43971
1380603541,5810,907.9099731445312000,47.8538093566894500,666.3184204101562000,4.4197387695312500,53.9209518432617200,52,99,84,79,78,15264,2147755401,2147422656,2148012516,2147871442,2147637202,2147056576,2148261650,2147196123,253,4,13,59435
1380607141,5807,917.7100219726562000,48.0444908142089840,667.0053710937500000,4.3970699310302730,53.9055900573730500,53,102,85,78,78,15263,2147759204,2147426596,2148012342,2147871670,2147646180,2147053531,2148265060,2147199725,592,4,13,11222
1380610741,5810,939.6900024414062000,49.1606483459472660,669.9144287109375000,4.3010268211364750,53.7879486083984400,52,98,85,78,78,15264,2147755190,2147424694,2148009709,2147872969,2147642651,2147053997,2148263817,2147203373,5,4,13,45567
1380614341,5810,952.3900146484375000,49.5311012268066400,670.1445922851562000,4.2934207916259770,53.7350883483886700,53,98,84,79,78,15266,2147758372,2147425389,2148013330,2147873472,2147639296,2147055003,2148261504,2147195648,3285,4,13,45305
1380617941,5805,947.0700073242188000,49.3665885925293000,670.2218017578125000,4.2908711433410645,53.7574195861816400,52,98,87,78,79,15262,2147753069,2147425133,2148012333,2147871222,2147639945,2147054701,2148260681,2147198153,229,4,13,43185
1380621541,5807,973.2600097656250000,50.6738700866699200,673.4547119140625000,4.1840081214904785,53.6174507141113300,53,99,81,78,78,15264,2147757037,2147426185,2148012626,2147875684,2147644516,2147056576,2148263085,2147196214,521,4,13,40171
1380625141,5810,968.7600097656250000,51.8095512390136700,675.2570800781250000,4.1243801116943360,53.4864997863769500,52,98,84,78,79,15262,2147756864,2147427245,2148012836,2147870546,2147642843,2147057728,2148266203,2147198016,3321,4,13,61404
1380628741,5809,972.4000244140625000,51.9951286315918000,676.2313232421875000,4.0921339988708500,53.4756202697753900,52,98,87,77,78,15265,2147753042,2147426413,2148013101,2147869138,2147643830,2147050240,2148265161,2147199323,3395,4,13,39931
1380632341,5811,978.9199829101562000,52.1066703796386700,676.0468139648438000,4.0982418060302730,53.4592208862304700,53,99,84,78,79,15266,2147758939,2147424274,2148015113,2147871533,2147644178,2147057563,2148262985,2147196233,2,4,13,51030
1380635941,5807,979.1900024414062000,51.7539291381835940,675.5568847656250000,4.1144580841064450,53.5033683776855500,52,97,83,80,79,15266,2147756836,2147425197,2148011940,2147873389,2147642212,2147050560,2148261613,2147198930,3380,4,13,62954
1380639541,5808,988.7700195312500000,52.0884590148925800,675.7009277343750000,4.1096901893615720,53.4585494995117200,52,98,84,78,79,15265,2147757668,2147423460,2148013869,2147875309,2147642322,2147058038,2148265124,2147200009,638,4,13,27299
1380643141,5811,990.9699707031250000,51.3423194885253900,674.5842285156250000,4.1466450691223145,53.5432395935058600,53,99,86,78,79,15263,2147754916,2147423323,2148013293,2147875017,2147642084,2147053558,2148263972,2147203629,35,4,13,17770
1380646741,5807,991.3300170898438000,50.7986602783203100,674.5073852539062000,4.1491870880126950,53.6183891296386700,53,108,86,80,79,15260,2147758500,2147423177,2148015378,2147873755,2147643565,2147046756,2148260900,2147194614,506,4,13,5263
1380650341,5807,993.4400024414062000,51.1041984558105500,674.2042846679688000,4.1592140197753910,53.5692405700683600,52,98,86,79,79,15262,2147756260,2147424758,2148015524,2147871158,2147636736,2147056530,2148264283,2147195318,103,3,13,14516
1380653941,5809,991.0700073242188000,50.2510490417480500,673.7860717773438000,4.1730461120605470,53.6865882873535160,52,98,85,79,79,15263,2147757513,2147428306,2148013988,2147872402,2147641974,2147054153,2148262016,2147199387,64,4,13,2189
1380657541,5812,992.2199707031250000,50.0677490234375000,674.0023803710938000,4.1658940315246580,53.7080116271972660,53,98,87,78,79,15258,2147757824,2147424832,2148013257,2147874468,2147639506,2147051072,2148258642,2147198637,72,4,13,37030
1380661141,5809,990.0000000000000000,50.2076797485351560,673.9984741210938000,4.1660189628601070,53.6924514770507800,51,99,85,78,78,15250,2147754541,2147429101,2148015460,2147872603,2147638208,2147053540,2148262500,2147197732,3351,4,13,33875
1380664741,5808,986.9799804687500000,50.2652587890625000,674.1295776367188000,4.1616859436035160,53.6882095336914060,52,100,86,78,78,15252,2147755328,2147424137,2148013851,2147872502,2147639506,2147050413,2148255972,2147197302,513,3,13,31467
1380668341,5811,986.4899902343750000,50.9775199890136700,675.1237792968750000,4.1287918090820310,53.5984306335449200,52,99,86,78,78,15103,2147758555,2147426989,2148014290,2147871021,2147642550,2147056676,2148261741,2147197760,72,4,13,61964
1380671941,5811,984.5499877929688000,51.3701095581054700,675.8961791992188000,4.1032280921936035,53.5562095642089840,52,97,83,78,79,15104,2147755410,2147426779,2148014061,2147869961,2147638747,2147056466,2148262994,2147197284,3547,4,13,30713
1380675541,5810,987.3200073242188000,51.3000907897949200,675.8046264648438000,4.1062579154968260,53.5652198791503900,53,96,86,78,79,15098,2147761225,2147426029,2148014116,2147873142,2147639113,2147053988,2148265024,2147196297,3406,4,13,5957
1380679141,5808,984.0999755859375000,51.5176200866699200,676.0045166015625000,4.0996417999267580,53.5367202758789060,52,98,86,77,79,15037,2147756470,2147423808,2148014619,2147871360,2147643474,2147054043,2148262921,2147200694,3287,4,13,14340
1380682741,5808,988.7100219726562000,51.9749107360839840,675.7606811523438000,4.1077098846435550,53.4709701538085940,53,98,85,78,78,15050,2147758180,2147425289,2148014930,2147874349,2147639744,2147052123,2148263515,2147197906,3569,3,13,5152
1380686341,5809,987.7000122070312000,51.8148803710937500,675.7786865234375000,4.1071128845214840,53.4953384399414060,52,99,86,79,79,15065,2147753709,2147425728,2148016045,2147873051,2147640420,2147053394,2148263780,2147196818,3542,3,13,12398
1380689941,5808,996.8699951171875000,51.8962516784668000,675.4230957031250000,4.1188850402832030,53.4793510437011700,51,97,85,78,78,15063,2147758381,2147426258,2148014034,2147870912,2147641773,2147057545,2148270134,2147198299,3241,4,13,9456
1380693541,5809,1000.1599731445312000,49.9368591308593750,673.3836059570312000,4.1863589286804200,53.7188415527343750,52,96,88,78,78,15056,2147758729,2147424795,2148013248,2147870765,2147641115,2147052736,2148260580,2147197284,237,3,13,44938
1380697141,5813,996.3699951171875000,49.9840393066406250,673.3986816406250000,4.1858601570129395,53.7186393737793000,53,99,83,79,79,15062,2147756105,2147426157,2148013476,2147872512,2147637229,2147049856,2148266569,2147197659,75,4,13,34707
1380700741,5808,996.6799926757812000,49.7223014831543000,674.1439208984375000,4.1612110137939450,53.7578315734863300,51,98,82,79,78,15059,2147755666,2147426139,2148015177,2147873398,2147639213,2147051584,2148262272,2147197366,509,4,13,9303
1380704341,5806,985.2000122070312000,50.5115509033203100,675.3281860351562000,4.1220259666442870,53.6696815490722660,51,98,85,79,78,15059,2147761316,2147422272,2148015680,2147870857,2147639158,2147054107,2148264192,2147196196,348,4,13,22369
1380707941,5808,990.5499877929688000,50.8325004577636700,676.2053833007812000,4.0929908752441410,53.6370506286621100,51,100,85,79,79,15060,2147754870,2147425005,2148013897,2147873810,2147643181,2147051675,2148264950,2147199579,138,4,13,8523
1380711541,5812,990.3099975585938000,51.6204299926757800,675.8165893554688000,4.1058621406555180,53.5229682922363300,52,99,81,78,79,15060,2147755053,2147425810,2148015698,2147873216,2147640228,2147050642,2148263040,2147197074,1,4,13,25775
1380715141,5813,986.3900146484375000,51.1707496643066400,676.2410278320312000,4.0918140411376950,53.5875701904296900,52,97,84,79,79,15063,2147755776,2147426514,2148013458,2147874166,2147640000,2147053723,2148265974,2147196763,89,4,13,56411
1380718741,5809,987.3099975585938000,51.2546081542968750,676.4473876953125000,4.0849781036376950,53.5796699523925800,51,99,84,78,79,15063,2147756562,2147425718,2148013238,2147873270,2147644452,2147057746,2148266441,2147197696,29,4,13,32424
1380722341,5807,989.0399780273438000,51.2041893005371100,676.8770141601562000,4.0707550048828125,53.5921401977539060,52,96,86,78,78,15057,2147759003,2147425344,2148014610,2147872384,2147643885,2147055323,2148266349,2147197421,3285,4,13,41871
1380725941,5813,985.2800292968750000,51.8137283325195300,677.7374267578125000,4.0422630310058590,53.5191993713378900,52,110,85,79,79,15060,2147757522,2147427062,2148014107,2147874057,2147641161,2147054793,2148267218,2147194267,3533,4,13,55965
1380729541,5809,996.9000244140625000,51.7411804199218750,676.6356811523438000,4.0787429809570310,53.5170402526855500,52,103,84,78,79,15056,2147755721,2147423954,2148013814,2147873664,2147641389,2147048932,2148261979,2147197366,3028,4,13,7617
1380733141,5807,999.6400146484375000,51.8377685546875000,675.5178833007812000,4.1157460212707520,53.4856414794921900,52,98,83,79,78,15056,2147756864,2147425700,2148017892,2147872630,2147641289,2147051666,2148265764,2147197750,3580,4,13,2983
1380736741,5809,1003.0999755859375000,51.4606399536132800,675.0928955078125000,4.1298117637634280,53.5324592590332000,52,101,88,78,78,15049,2147754550,2147426596,2148011840,2147871524,2147640493,2147059602,2148262308,2147198070,223,4,13,58462
1380740341,5807,1006.8800048828125000,50.8809089660644500,674.2000122070312000,4.1593570709228520,53.6028404235839840,53,97,84,79,78,15050,2147757851,2147422573,2148013860,2147874486,2147641536,2147052882,2148263908,2147194587,3167,4,13,15097
1380743755,5805,1008.7899780273438000,50.7211303710937500,673.0825195312500000,4.1963200569152830,53.6121902465820300,51,97,85,78,79,15258,2147756288,2147424576,2148015497,2147873234,2147642861,2147049865,2148265819,2147195282,212,4,13,33850
